period_start,C,m1,H,J0,J1,J2,J3,J4,J5,JA,JB,JC,JD,JJ,JK,JN,#
2014-08-23 00:00:57,0.01,6.77,0.00,23.19,27.40,29.68,9.75,49.35,1015.55,2034.00,1506.00,2000.00,2063.81,499.98,495.94,30.27,0000 0000 0000 0000 000000
2014-08-23 00:05:58,0.01,6.77,0.00,23.22,27.42,29.71,9.66,49.22,1015.46,2033.99,1506.00,2000.00,2063.58,499.92,495.57,30.31,0000 0000 0000 0000 000000
2014-08-23 00:10:59,0.01,6.77,0.00,23.25,27.45,29.72,9.70,49.32,1015.48,2033.99,1505.99,1999.99,2063.24,500.44,496.11,30.36,0000 0000 0000 0000 000000
2014-08-23 00:16:00,0.01,6.77,0.00,23.28,27.46,29.74,9.62,49.24,1015.44,2033.98,1505.97,1999.95,2063.04,499.71,495.36,30.40,0000 0000 0000 0000 000000
2014-08-23 00:21:02,0.03,6.77,0.00,23.32,27.49,29.78,9.64,49.13,1015.32,2033.92,1505.80,1999.61,2063.01,499.87,495.33,30.44,0000 0000 0000 0000 000000
2014-08-23 00:26:03,-0.02,6.77,0.00,23.36,27.51,29.80,9.60,48.93,1015.18,2033.74,1505.72,1999.22,2063.00,499.69,495.01,30.48,0000 0000 0000 0000 000000
2014-08-23 00:31:04,-0.05,6.77,0.00,23.38,27.54,29.81,9.58,49.02,1015.16,2033.23,1505.60,1999.06,2062.98,499.74,495.16,30.52,0000 0000 0000 0000 000000
2014-08-23 00:36:05,0.02,6.77,0.00,23.42,27.56,29.85,9.70,49.27,1015.14,2033.05,1505.30,1999.00,2062.94,500.00,495.32,30.57,0000 0000 0000 0000 000000
2014-08-23 00:41:06,0.02,6.77,0.00,23.43,27.58,29.87,9.58,49.38,1015.10,2033.01,1505.07,1998.99,2062.52,499.51,494.75,30.61,0000 0000 0000 0000 000000
2014-08-23 00:46:08,0.01,6.77,0.00,23.48,27.61,29.91,9.72,49.48,1015.06,2033.00,1505.01,1998.98,2062.31,500.51,495.56,30.65,0000 0000 0000 0000 000000
2014-08-23 00:51:09,0.01,6.77,0.00,23.50,27.63,29.92,9.58,49.27,1014.80,2033.00,1505.00,1998.88,2062.09,499.82,494.79,30.69,0000 0000 0000 0000 000000
2014-08-23 00:56:10,0.02,6.77,0.00,23.54,27.65,29.96,9.66,49.22,1014.68,2033.00,1504.99,1998.61,2062.01,500.15,495.12,30.73,0000 0000 0000 0000 000000
2014-08-23 01:01:11,0.02,6.78,0.00,23.56,27.67,29.97,9.65,49.29,1014.67,2032.98,1504.99,1998.16,2062.00,500.14,494.98,30.77,0000 0000 0000 0000 000000
2014-08-23 01:06:12,0.01,6.78,0.00,23.57,27.70,29.99,9.67,49.35,1014.67,2032.96,1504.98,1998.02,2061.99,500.14,494.95,30.82,0000 0000 0000 0000 000000
2014-08-23 01:11:13,-0.02,6.78,0.00,23.59,27.72,30.01,9.65,49.30,1014.66,2032.82,1504.95,1998.01,2061.87,500.05,494.75,30.86,0000 0000 0000 0000 000000
2014-08-23 01:16:14,-0.02,6.77,0.00,23.62,27.75,30.04,9.58,48.94,1014.66,2032.53,1504.86,1998.00,2061.47,499.75,494.64,30.90,0000 0000 0000 0000 000000
2014-08-23 01:21:15,0.02,6.77,0.00,23.67,27.77,30.06,9.60,48.85,1014.63,2032.31,1504.36,1997.99,2061.43,500.04,494.66,30.94,0000 0000 0000 0000 000000
2014-08-23 01:26:16,-0.02,6.77,0.00,23.69,27.79,30.08,9.61,49.27,1014.60,2032.08,1504.10,1997.96,2061.13,499.36,493.92,30.98,0000 0000 0000 0000 000000
2014-08-23 01:31:17,0.01,6.77,0.00,23.71,27.81,30.11,9.62,49.11,1014.45,2032.03,1504.05,1997.89,2061.01,499.64,494.12,31.03,0000 0000 0000 0000 000000
2014-08-23 01:36:18,0.04,6.78,0.00,23.76,27.84,30.13,9.63,49.27,1014.29,2032.02,1504.01,1997.44,2061.00,500.03,494.63,31.07,0000 0000 0000 0000 000000
2014-08-23 01:41:20,0.01,6.78,0.00,23.78,27.86,30.15,9.64,49.08,1014.27,2032.00,1504.00,1997.05,2061.00,500.00,494.15,31.11,0000 0000 0000 0000 000000
2014-08-23 01:46:21,0.00,6.78,0.00,23.80,27.89,30.18,9.68,49.08,1014.23,2032.00,1504.00,1997.00,2060.95,500.48,494.69,31.15,0000 0000 0000 0000 000000
2014-08-23 01:51:22,0.00,6.78,0.00,23.84,27.91,30.20,9.62,48.96,1014.19,2031.99,1503.99,1997.00,2060.89,500.18,494.43,31.19,0000 0000 0000 0000 000000
2014-08-23 01:56:23,0.02,6.78,0.00,23.86,27.94,30.22,9.63,48.99,1014.19,2031.98,1503.98,1996.99,2060.50,500.24,494.31,31.24,0000 0000 0000 0000 000000
2014-08-23 02:01:24,0.01,6.78,0.00,23.91,27.96,30.25,9.49,48.96,1014.18,2031.97,1503.98,1996.97,2060.19,499.35,493.48,31.28,0000 0000 0000 0000 000000
2014-08-23 02:06:25,0.00,6.78,0.00,23.93,27.99,30.27,9.61,48.88,1014.18,2031.96,1503.97,1996.96,2060.03,500.07,494.08,31.32,0000 0000 0000 0000 000000
2014-08-23 02:11:26,-0.03,6.78,0.00,23.98,28.01,30.29,9.57,48.91,1014.14,2031.76,1503.95,1996.74,2060.00,499.94,493.76,31.36,0000 0000 0000 0000 000000
2014-08-23 02:16:27,0.00,6.78,0.00,24.02,28.04,30.33,9.59,49.14,1014.13,2031.38,1503.88,1996.26,2060.00,499.66,493.52,31.40,0000 0000 0000 0000 000000
2014-08-23 02:21:28,-0.01,6.78,0.00,24.05,28.06,30.34,9.59,49.15,1014.02,2031.09,1503.79,1996.04,2059.98,499.39,493.02,31.44,0000 0000 0000 0000 000000
2014-08-23 02:26:29,-0.01,6.78,0.00,24.08,28.09,30.37,9.60,49.09,1013.76,2031.02,1503.50,1996.00,2059.91,499.92,493.31,31.49,0000 0000 0000 0000 000000
2014-08-23 02:31:30,0.04,6.78,0.00,24.13,28.12,30.40,9.60,48.92,1013.70,2031.00,1503.25,1996.00,2059.46,499.64,493.12,31.53,0000 0000 0000 0000 000000
2014-08-23 02:36:32,0.02,6.78,0.00,24.17,28.14,30.42,9.55,48.97,1013.69,2030.99,1503.06,1995.99,2059.13,499.97,493.24,31.57,0000 0000 0000 0000 000000
2014-08-23 02:41:33,0.01,6.78,0.00,24.21,28.17,30.46,9.54,48.78,1013.69,2030.99,1503.00,1995.94,2059.06,500.06,493.36,31.61,0000 0000 0000 0000 000000
2014-08-23 02:46:34,0.00,6.78,0.00,24.23,28.20,30.48,9.57,48.87,1013.69,2030.95,1502.98,1995.81,2059.00,500.14,493.34,31.65,0000 0000 0000 0000 000000
2014-08-23 02:51:35,0.03,6.78,0.00,24.28,28.22,30.51,9.58,48.97,1013.69,2030.91,1502.98,1995.33,2059.00,500.10,493.26,31.70,0000 0000 0000 0000 000000
2014-08-23 02:56:36,-0.03,6.78,0.00,24.32,28.25,30.54,9.60,48.98,1013.69,2030.61,1502.83,1995.03,2058.98,500.02,493.15,31.74,0000 0000 0000 0000 000000
2014-08-23 03:01:37,-0.04,6.78,0.00,24.33,28.28,30.56,9.55,48.87,1013.69,2030.24,1502.50,1995.00,2058.97,499.75,492.76,31.78,0000 0000 0000 0000 000000
2014-08-23 03:06:38,0.02,6.78,0.00,24.39,28.31,30.59,9.51,48.80,1013.68,2030.07,1502.30,1995.00,2058.66,499.69,492.71,31.82,0000 0000 0000 0000 000000
2014-08-23 03:11:39,0.03,6.78,0.00,24.41,28.34,30.63,9.53,48.98,1013.50,2030.01,1502.04,1994.97,2058.12,499.75,492.80,31.86,0000 0000 0000 0000 000000
2014-08-23 03:16:40,0.00,6.78,0.00,24.42,28.37,30.67,9.54,48.78,1013.22,2030.00,1502.02,1994.92,2058.01,500.08,492.58,31.91,0000 0000 0000 0000 000000
2014-08-23 03:21:42,0.04,6.78,0.00,24.45,28.40,30.70,9.50,48.74,1013.21,2030.00,1502.00,1994.48,2058.00,499.80,492.63,31.95,0000 0000 0000 0000 000000
2014-08-23 03:26:43,0.01,6.78,0.00,24.48,28.43,30.72,9.61,48.84,1013.20,2029.98,1502.00,1994.11,2058.00,500.19,492.82,31.99,0000 0000 0000 0000 000000
2014-08-23 03:31:44,-0.01,6.78,0.00,24.50,28.46,30.75,9.58,48.63,1013.20,2029.95,1501.99,1994.02,2057.97,499.94,492.32,32.03,0000 0000 0000 0000 000000
2014-08-23 03:36:45,-0.00,6.78,0.00,24.54,28.49,30.79,9.68,48.81,1013.20,2029.83,1501.97,1994.00,2057.91,500.40,492.91,32.07,0000 0000 0000 0000 000000
2014-08-23 03:41:46,-0.06,6.78,0.00,24.58,28.51,30.80,9.56,48.68,1013.18,2029.37,1501.96,1994.00,2057.32,499.67,492.07,32.11,0000 0000 0000 0000 000000
2014-08-23 03:46:47,0.01,6.78,0.00,24.63,28.54,30.85,9.56,48.75,1013.11,2029.12,1501.68,1993.96,2057.16,499.94,492.28,32.16,0000 0000 0000 0000 000000
2014-08-23 03:51:48,0.01,6.78,0.00,24.64,28.57,30.87,9.61,48.62,1012.86,2029.04,1501.38,1993.94,2057.04,499.94,492.19,32.20,0000 0000 0000 0000 000000
2014-08-23 03:56:49,0.04,6.78,0.00,24.67,28.60,30.89,9.56,48.70,1012.73,2029.00,1501.09,1993.51,2057.00,500.06,492.06,32.24,0000 0000 0000 0000 000000
2014-08-23 04:01:51,0.02,6.78,0.00,24.69,28.63,30.93,9.59,48.77,1012.72,2029.00,1501.01,1993.18,2057.00,499.87,492.03,32.28,0000 0000 0000 0000 000000
2014-08-23 04:06:52,0.00,6.78,0.00,24.69,28.66,30.96,9.59,48.77,1012.71,2029.00,1501.00,1993.01,2056.98,500.43,492.46,32.32,0000 0000 0000 0000 000000
2014-08-23 04:11:53,0.01,6.78,0.00,24.71,28.69,30.99,9.57,48.67,1012.71,2028.98,1500.99,1993.00,2056.70,500.13,492.00,32.36,0000 0000 0000 0000 000000
2014-08-23 04:16:54,0.03,6.79,0.00,24.75,28.71,31.02,9.58,48.57,1012.71,2028.98,1500.89,1992.96,2056.11,500.14,492.01,32.40,0000 0000 0000 0000 000000
2014-08-23 04:21:56,-0.01,6.79,0.00,24.79,28.74,31.05,9.52,48.77,1012.71,2028.80,1500.82,1992.80,2056.00,499.97,491.85,32.45,0000 0000 0000 0000 000000
2014-08-23 04:26:57,-0.00,6.79,0.00,24.83,28.77,31.08,9.60,48.68,1012.71,2028.38,1500.32,1992.27,2056.00,499.83,491.72,32.49,0000 0000 0000 0000 000000
2014-08-23 04:31:58,-0.02,6.78,0.00,24.83,28.80,31.09,9.50,48.63,1012.71,2028.04,1500.19,1992.02,2055.98,499.78,491.61,32.53,0000 0000 0000 0000 000000
2014-08-23 04:36:59,0.01,6.78,0.00,24.88,28.83,31.12,9.54,48.78,1012.69,2028.02,1500.11,1992.01,2055.88,500.38,491.83,32.57,0000 0000 0000 0000 000000
2014-08-23 04:42:01,0.03,6.79,0.00,24.89,28.86,31.15,9.56,48.42,1012.64,2028.00,1500.03,1991.99,2055.43,500.02,491.43,32.61,0000 0000 0000 0000 000000
2014-08-23 04:47:02,0.00,6.79,0.00,24.91,28.88,31.17,9.60,48.61,1012.56,2028.00,1500.00,1991.98,2055.06,500.49,491.94,32.65,0000 0000 0000 0000 000000
2014-08-23 04:52:04,0.00,6.79,0.00,24.92,28.91,31.21,9.55,48.70,1012.57,2028.00,1500.00,1991.93,2055.00,500.02,491.54,32.70,0000 0000 0000 0000 000000
2014-08-23 04:57:05,0.04,6.79,0.00,24.93,28.94,31.23,9.57,48.61,1012.55,2027.99,1499.97,1991.52,2055.00,499.98,491.49,32.74,0000 0000 0000 0000 000000
2014-08-23 05:02:06,0.01,6.79,0.00,24.95,28.96,31.26,9.54,48.57,1012.30,2027.97,1499.97,1991.21,2054.99,500.16,491.53,32.78,0000 0000 0000 0000 000000
2014-08-23 05:07:07,0.00,6.79,0.00,25.00,28.99,31.29,9.51,48.40,1012.24,2027.91,1499.97,1991.05,2054.95,499.90,491.29,32.82,0000 0000 0000 0000 000000
2014-08-23 05:12:09,-0.01,6.79,0.00,25.02,29.01,31.30,9.56,48.71,1012.22,2027.78,1499.91,1991.00,2054.78,500.37,491.37,32.86,0000 0000 0000 0000 000000
2014-08-23 05:17:10,-0.07,6.79,0.00,25.04,29.04,31.34,9.55,48.52,1012.22,2027.14,1499.80,1991.00,2054.13,499.76,490.99,32.90,0000 0000 0000 0000 000000
2014-08-23 05:22:11,0.03,6.79,0.00,25.05,29.06,31.36,9.56,48.48,1012.22,2027.03,1499.40,1990.99,2054.02,500.20,491.41,32.95,0000 0000 0000 0000 000000
2014-08-23 05:27:13,-0.02,6.79,0.00,25.05,29.09,31.38,9.51,48.49,1012.21,2027.00,1499.59,1990.97,2054.00,500.18,491.31,32.99,0000 0000 0000 0000 000000
2014-08-23 05:32:13,0.04,6.79,0.00,25.08,29.11,31.41,9.56,48.63,1012.17,2027.00,1499.28,1990.90,2054.00,500.20,491.29,33.03,0000 0000 0000 0000 000000
2014-08-23 05:37:14,0.03,6.79,0.00,25.09,29.14,31.43,9.57,48.38,1012.17,2027.00,1499.04,1990.54,2054.00,500.08,491.16,33.07,0000 0000 0000 0000 000000
2014-08-23 05:42:16,0.02,6.79,0.00,25.11,29.16,31.45,9.51,48.24,1011.89,2027.00,1499.00,1990.21,2053.96,499.92,490.84,33.11,0000 0000 0000 0000 000000
2014-08-23 05:47:17,0.01,6.79,0.00,25.13,29.19,31.48,9.58,48.38,1011.76,2026.96,1499.00,1990.03,2053.57,500.08,490.90,33.15,0000 0000 0000 0000 000000
2014-08-23 05:52:18,-0.02,6.79,0.00,25.15,29.21,31.50,9.56,48.44,1011.74,2026.82,1499.00,1990.00,2053.26,500.18,490.76,33.20,0000 0000 0000 0000 000000
2014-08-23 05:57:20,-0.02,6.79,0.00,25.16,29.23,31.52,9.53,48.30,1011.73,2026.59,1498.98,1990.00,2053.15,500.03,491.09,33.24,0000 0000 0000 0000 000000
2014-08-23 06:02:21,-0.05,6.79,0.00,25.16,29.25,31.55,9.57,48.20,1011.73,2026.14,1498.96,1989.99,2053.02,500.21,490.78,33.28,0000 0000 0000 0000 000000
2014-08-23 06:07:22,0.00,6.79,0.00,25.19,29.27,31.57,9.50,48.33,1011.70,2026.07,1498.90,1989.98,2053.01,499.60,490.18,33.32,0000 0000 0000 0000 000000
2014-08-23 06:12:23,0.05,6.79,0.00,25.20,29.29,31.58,9.50,48.43,1011.54,2026.02,1498.46,1989.78,2053.00,499.86,490.41,33.36,0000 0000 0000 0000 000000
2014-08-23 06:17:24,0.03,6.79,0.00,25.21,29.31,31.61,9.49,48.17,1011.39,2026.01,1498.08,1989.35,2053.00,499.83,490.39,33.40,0000 0000 0000 0000 000000
2014-08-23 06:22:25,0.02,6.79,0.00,25.22,29.33,31.63,9.60,48.37,1011.28,2026.00,1498.03,1989.14,2052.96,500.04,490.44,33.45,0000 0000 0000 0000 000000
2014-08-23 06:27:26,0.02,6.79,0.00,25.23,29.35,31.64,9.54,48.25,1011.26,2026.00,1498.03,1989.02,2052.52,499.88,490.28,33.49,0000 0000 0000 0000 000000
2014-08-23 06:32:27,0.01,6.79,0.00,25.26,29.37,31.65,9.53,48.33,1011.26,2025.98,1498.01,1989.00,2052.11,500.38,490.67,33.53,0000 0000 0000 0000 000000
2014-08-23 06:37:29,-0.00,6.79,0.00,25.26,29.38,31.67,9.50,48.27,1011.26,2025.97,1498.02,1989.00,2052.02,500.00,490.32,33.57,0000 0000 0000 0000 000000
2014-08-23 06:42:30,-0.01,6.79,0.00,25.27,29.40,31.69,9.54,48.28,1011.26,2025.93,1498.00,1988.99,2052.00,499.93,490.29,33.61,0000 0000 0000 0000 000000
2014-08-23 06:47:31,-0.02,6.79,0.00,25.26,29.42,31.72,9.52,48.45,1011.25,2025.82,1497.99,1988.98,2052.00,500.19,490.56,33.65,0000 0000 0000 0000 000000
2014-08-23 06:52:32,-0.02,6.79,0.00,25.28,29.43,31.73,9.50,48.29,1011.25,2025.57,1497.97,1988.96,2051.99,499.82,490.10,33.69,0000 0000 0000 0000 000000
2014-08-23 06:57:33,-0.02,6.79,0.00,25.30,29.45,31.74,9.50,48.07,1011.25,2025.26,1497.86,1988.62,2051.98,500.09,490.32,33.74,0000 0000 0000 0000 000000
2014-08-23 07:02:34,-0.01,6.79,0.00,25.29,29.47,31.76,9.54,48.26,1011.22,2025.11,1497.82,1988.40,2051.97,500.14,490.39,33.78,0000 0000 0000 0000 000000
2014-08-23 07:07:35,0.05,6.79,0.00,25.32,29.48,31.78,9.48,48.21,1011.12,2025.14,1497.62,1988.23,2051.94,499.77,489.94,33.82,0000 0000 0000 0000 000000
2014-08-23 07:12:36,0.01,6.79,0.00,25.33,29.50,31.78,9.56,48.26,1010.80,2025.07,1497.40,1988.07,2051.88,499.76,489.77,33.86,0000 0000 0000 0000 000000
2014-08-23 07:17:37,0.02,6.79,0.00,25.35,29.52,31.80,9.58,48.49,1010.77,2025.03,1497.09,1988.03,2051.65,500.49,490.32,33.90,0000 0000 0000 0000 000000
2014-08-23 07:22:38,0.02,6.79,0.00,25.35,29.53,31.83,9.58,48.37,1010.76,2025.02,1497.02,1988.00,2051.16,500.17,490.11,33.94,0000 0000 0000 0000 000000
2014-08-23 07:27:40,-0.00,6.79,0.00,25.34,29.55,31.84,9.51,48.31,1010.76,2025.01,1497.00,1988.00,2051.05,499.97,490.11,33.99,0000 0000 0000 0000 000000
2014-08-23 07:32:40,-0.00,6.79,0.00,25.37,29.56,31.86,9.58,48.42,1010.75,2025.00,1497.00,1988.00,2051.01,500.29,490.27,34.03,0000 0000 0000 0000 000000
2014-08-23 07:37:41,0.00,6.79,0.00,25.38,29.57,31.87,9.56,48.59,1010.66,2025.00,1497.00,1987.98,2051.01,500.01,489.98,34.07,0000 0000 0000 0000 000000
2014-08-23 07:42:42,0.01,6.79,0.00,25.39,29.59,31.88,9.49,48.59,1010.32,2025.00,1496.98,1987.93,2051.00,499.87,489.53,34.11,0000 0000 0000 0000 000000
2014-08-23 07:47:43,0.02,6.79,0.00,25.39,29.60,31.90,9.57,48.63,1010.29,2025.00,1496.97,1987.68,2050.99,499.78,489.35,34.15,0000 0000 0000 0000 000000
2014-08-23 07:52:44,0.03,6.80,0.00,25.40,29.62,31.91,9.51,48.46,1010.28,2024.99,1496.93,1987.36,2050.98,500.11,489.72,34.19,0000 0000 0000 0000 000000
2014-08-23 07:57:45,0.03,6.80,0.00,25.40,29.62,31.92,9.54,48.48,1010.28,2024.98,1496.85,1987.19,2050.89,500.06,489.70,34.24,0000 0000 0000 0000 000000
2014-08-23 08:02:47,0.03,6.80,0.00,25.42,29.65,31.93,9.53,48.52,1010.27,2024.97,1496.61,1987.04,2050.64,500.23,489.78,34.28,0000 0000 0000 0000 000000
2014-08-23 08:07:48,0.04,6.80,0.00,25.45,29.65,31.93,9.52,48.55,1010.27,2024.94,1496.28,1987.01,2050.31,499.89,489.48,34.32,0000 0000 0000 0000 000000
2014-08-23 08:12:49,-0.01,6.80,0.00,25.45,29.67,31.95,9.51,48.54,1010.27,2024.88,1496.35,1987.00,2050.03,499.87,489.25,34.36,0000 0000 0000 0000 000000
2014-08-23 08:17:50,0.01,6.80,0.00,25.46,29.67,31.97,9.54,48.67,1010.27,2024.87,1496.19,1987.00,2050.03,500.42,489.97,34.40,0000 0000 0000 0000 000000
2014-08-23 08:22:51,-0.05,6.80,0.00,25.46,29.70,31.98,9.55,48.99,1010.27,2024.46,1496.05,1987.00,2050.00,499.80,489.43,34.44,0000 0000 0000 0000 000000
2014-08-23 08:27:52,-0.03,6.80,0.00,25.47,29.70,31.99,9.49,48.69,1010.28,2024.20,1496.02,1986.99,2050.00,500.31,489.86,34.49,0000 0000 0000 0000 000000
2014-08-23 08:32:53,-0.02,6.80,0.00,25.46,29.72,32.00,9.47,48.65,1010.29,2024.11,1496.00,1986.96,2050.00,499.53,489.11,34.53,0000 0000 0000 0000 000000
2014-08-23 08:37:54,0.01,6.79,0.00,25.46,29.72,32.01,9.53,48.48,1010.27,2024.08,1496.00,1986.90,2049.99,499.86,489.38,34.57,0000 0000 0000 0000 000000
2014-08-23 08:42:55,0.02,6.80,0.00,25.47,29.74,32.02,9.57,48.40,1010.27,2024.03,1495.99,1986.57,2049.96,500.35,489.85,34.61,0000 0000 0000 0000 000000
2014-08-23 08:47:56,0.00,6.80,0.00,25.47,29.75,32.03,9.51,48.38,1010.26,2024.02,1495.99,1986.46,2049.93,499.90,489.24,34.65,0000 0000 0000 0000 000000
2014-08-23 08:52:57,0.04,6.80,0.00,25.49,29.76,32.04,9.60,48.42,1010.26,2024.00,1495.98,1986.12,2049.61,500.25,489.94,34.69,0000 0000 0000 0000 000000
2014-08-23 08:57:58,0.01,6.80,0.00,25.49,29.77,32.05,9.58,48.46,1010.07,2024.00,1495.94,1986.01,2049.20,500.25,489.45,34.73,0000 0000 0000 0000 000000
2014-08-23 09:03:00,0.00,6.80,0.00,25.52,29.77,32.08,9.49,48.38,1009.88,2024.00,1495.94,1986.00,2049.09,499.87,489.16,34.78,0000 0000 0000 0000 000000
2014-08-23 09:08:01,0.00,6.80,0.00,25.49,29.77,32.08,9.63,48.22,1010.06,2024.00,1495.84,1986.00,2049.02,500.87,490.15,34.82,0000 0000 0000 0000 000000
2014-08-23 09:13:02,-0.00,6.80,0.00,25.50,29.80,32.09,9.53,48.12,1009.86,2024.00,1495.82,1986.00,2049.03,500.28,489.47,34.86,0000 0000 0000 0000 000000
2014-08-23 09:18:03,0.01,6.80,0.00,25.51,29.80,32.10,9.56,48.23,1009.81,2024.00,1495.76,1986.00,2049.04,500.08,489.31,34.90,0000 0000 0000 0000 000000
2014-08-23 09:23:04,0.01,6.80,0.00,25.50,29.80,32.10,9.52,48.10,1009.82,2024.00,1495.57,1986.00,2049.01,499.94,489.16,34.94,0000 0000 0000 0000 000000
2014-08-23 09:28:05,0.03,6.80,0.00,25.50,29.82,32.11,9.59,48.15,1009.80,2023.99,1495.21,1985.99,2049.00,500.10,489.34,34.98,0000 0000 0000 0000 000000
2014-08-23 09:33:06,0.01,6.80,0.00,25.50,29.82,32.12,9.55,48.11,1009.79,2023.99,1495.05,1985.99,2049.00,500.02,489.17,35.03,0000 0000 0000 0000 000000
2014-08-23 09:38:08,0.00,6.80,0.00,25.50,29.82,32.13,9.49,48.22,1009.78,2023.99,1495.03,1985.98,2049.00,500.17,489.12,35.07,0000 0000 0000 0000 000000
2014-08-23 09:43:08,0.00,6.80,0.00,25.49,29.84,32.14,9.58,48.11,1009.78,2023.99,1495.01,1985.96,2049.00,499.98,489.20,35.11,0000 0000 0000 0000 000000
2014-08-23 09:48:10,0.01,6.80,0.00,25.52,29.85,32.14,9.48,48.35,1009.77,2023.97,1495.00,1985.79,2048.97,500.07,489.45,35.15,0000 0000 0000 0000 000000
2014-08-23 09:53:10,-0.00,6.80,0.00,25.51,29.85,32.15,9.52,48.23,1009.74,2023.97,1495.00,1985.80,2048.96,499.95,489.28,35.19,0000 0000 0000 0000 000000
2014-08-23 09:58:12,0.02,6.80,0.00,25.52,29.85,32.15,9.58,48.29,1009.77,2023.95,1495.00,1985.65,2048.94,500.03,489.32,35.23,0000 0000 0000 0000 000000
2014-08-23 10:03:13,0.00,6.80,0.00,25.52,29.86,32.17,9.49,48.08,1009.78,2023.91,1495.00,1985.34,2048.84,500.54,489.63,35.28,0000 0000 0000 0000 000000
2014-08-23 10:08:14,0.00,6.80,0.00,25.52,29.87,32.16,9.53,48.10,1009.66,2023.90,1495.00,1985.24,2048.75,499.88,489.09,35.32,0000 0000 0000 0000 000000
2014-08-23 10:13:15,0.01,6.80,0.00,25.53,29.87,32.17,9.56,48.14,1009.48,2023.91,1495.00,1985.19,2048.68,500.18,489.26,35.36,0000 0000 0000 0000 000000
2014-08-23 10:18:16,0.01,6.80,0.00,25.51,29.87,32.17,9.46,48.17,1009.32,2023.89,1495.00,1985.10,2048.47,499.79,488.75,35.40,0000 0000 0000 0000 000000
2014-08-23 10:23:17,0.00,6.80,0.00,25.51,29.87,32.18,9.51,48.18,1009.29,2023.82,1494.98,1985.03,2048.26,500.15,489.39,35.44,0000 0000 0000 0000 000000
2014-08-23 10:28:18,0.02,6.80,0.00,25.50,29.88,32.20,9.48,48.17,1009.29,2023.90,1494.98,1985.06,2048.24,500.25,489.25,35.48,0000 0000 0000 0000 000000
2014-08-23 10:33:20,-0.03,6.80,0.00,25.50,29.89,32.20,9.54,48.05,1009.29,2023.74,1494.95,1985.01,2048.02,500.09,489.13,35.53,0000 0000 0000 0000 000000
2014-08-23 10:38:20,0.01,6.80,0.00,25.48,29.90,32.20,9.46,48.01,1009.29,2023.58,1494.70,1985.00,2048.00,499.38,488.43,35.57,0000 0000 0000 0000 000000
2014-08-23 10:43:22,-0.01,6.80,0.00,25.50,29.90,32.19,9.59,47.96,1009.29,2023.35,1494.26,1985.00,2047.99,500.33,489.29,35.61,0000 0000 0000 0000 000000
2014-08-23 10:48:23,0.02,6.81,0.00,25.50,29.90,32.20,9.59,48.19,1009.22,2023.38,1494.01,1984.95,2047.96,499.88,488.74,35.65,0000 0000 0000 0000 000000
2014-08-23 10:53:24,0.00,6.80,0.00,25.50,29.90,32.20,9.52,47.98,1009.11,2023.15,1494.00,1984.70,2047.69,500.00,488.99,35.69,0000 0000 0000 0000 000000
2014-08-23 10:58:25,0.04,6.81,0.00,25.49,29.90,32.20,9.45,48.13,1009.07,2023.13,1494.00,1984.36,2047.38,500.07,488.97,35.73,0000 0000 0000 0000 000000
2014-08-23 11:03:26,0.09,6.81,0.00,25.47,29.90,32.21,9.47,48.08,1008.88,2023.18,1493.63,1984.05,2047.04,500.01,488.92,35.77,0000 0000 0000 0000 000000
2014-08-23 11:08:27,0.08,6.81,0.00,25.47,29.90,32.23,9.51,48.02,1008.82,2023.23,1492.97,1983.57,2046.82,499.80,488.90,35.82,0000 0000 0000 0000 000000
2014-08-23 11:13:28,0.11,6.82,0.00,25.45,29.91,32.21,9.47,48.10,1008.80,2023.10,1492.14,1982.81,2045.98,499.75,488.63,35.86,0000 0000 0000 0000 000000
2014-08-23 11:18:30,0.21,6.82,0.00,25.47,29.91,32.21,9.49,48.19,1008.80,2023.12,1491.06,1981.73,2044.86,500.14,489.06,35.90,0000 0000 0000 0000 000000
2014-08-23 11:23:31,0.24,6.83,0.00,25.46,29.91,32.22,9.49,48.31,1008.79,2023.06,1489.82,1980.46,2043.50,500.24,489.10,35.94,0000 0000 0000 0000 000000
2014-08-23 11:28:32,0.20,6.84,0.00,25.44,29.92,32.22,9.60,48.37,1008.79,2023.12,1488.73,1979.29,2042.33,500.24,489.05,35.98,0000 0000 0000 0000 000000
2014-08-23 11:33:33,0.13,6.85,0.00,25.45,29.91,32.21,9.42,48.26,1008.77,2023.13,1488.02,1978.43,2041.51,499.58,488.44,36.02,0000 0000 0000 0000 000000
2014-08-23 11:38:34,0.09,6.85,0.00,25.44,29.91,32.20,9.57,48.12,1008.70,2023.04,1487.32,1977.80,2040.80,500.41,489.42,36.07,0000 0000 0000 0000 000000
2014-08-23 11:43:35,0.11,6.86,0.00,25.42,29.91,32.21,9.55,48.08,1008.68,2023.08,1486.75,1977.02,2040.03,500.15,488.88,36.11,0000 0000 0000 0000 000000
2014-08-23 11:48:36,0.15,6.87,0.00,25.42,29.92,32.21,9.42,48.22,1008.45,2023.08,1485.98,1976.20,2039.26,499.86,488.59,36.15,0000 0000 0000 0000 000000
2014-08-23 11:53:38,0.08,6.87,0.00,25.42,29.91,32.21,9.43,48.46,1008.32,2023.09,1485.42,1975.88,2038.57,499.73,488.45,36.19,0000 0000 0000 0000 000000
2014-08-23 11:58:39,0.09,6.87,0.00,25.42,29.91,32.21,9.53,48.45,1008.32,2023.08,1485.03,1975.12,2038.02,500.30,488.84,36.23,0000 0000 0000 0000 000000
2014-08-23 12:03:40,0.04,6.87,0.00,25.42,29.91,32.21,9.49,48.20,1008.15,2023.04,1484.83,1974.87,2037.72,500.16,488.76,36.27,0000 0000 0000 0000 000000
2014-08-23 12:08:42,0.13,6.88,0.00,25.41,29.90,32.21,9.56,48.23,1007.87,2023.01,1484.06,1974.06,2037.00,500.25,488.65,36.31,0000 0000 0000 0000 000000
2014-08-23 12:13:43,0.19,6.89,0.00,25.42,29.90,32.21,9.51,48.54,1007.86,2023.05,1483.04,1973.12,2036.05,500.07,488.27,36.36,0000 0000 0000 0000 000000
2014-08-23 12:18:44,0.26,6.90,0.00,25.40,29.90,32.20,9.56,48.51,1007.83,2023.01,1481.73,1971.78,2034.68,500.26,488.66,36.40,0000 0000 0000 0000 000000
2014-08-23 12:23:45,0.21,6.90,0.00,25.37,29.90,32.21,9.53,48.42,1007.83,2023.01,1480.57,1970.64,2033.51,500.16,488.64,36.44,0000 0000 0000 0000 000000
2014-08-23 12:28:46,0.06,6.91,0.00,25.37,29.90,32.20,9.55,48.61,1007.79,2023.04,1480.01,1970.00,2032.78,499.96,488.55,36.48,0000 0000 0000 0000 000000
2014-08-23 12:33:47,0.13,6.91,0.00,25.36,29.90,32.19,9.55,48.58,1007.39,2023.02,1479.70,1969.33,2031.91,500.11,488.45,36.52,0000 0000 0000 0000 000000
2014-08-23 12:38:49,0.77,6.94,0.00,25.37,29.90,32.18,9.55,48.75,1007.34,2023.06,1476.21,1965.80,2028.64,499.81,487.98,36.56,0000 0000 0000 0000 000000
2014-08-23 12:43:50,0.68,6.97,0.00,25.37,29.89,32.19,9.56,48.63,1007.29,2023.06,1472.41,1961.81,2024.65,500.04,488.17,36.61,0000 0000 0000 0000 000000
2014-08-23 12:48:51,0.40,6.99,0.00,25.38,29.88,32.18,9.46,48.67,1007.25,2023.05,1469.78,1958.96,2021.91,500.19,488.45,36.65,0000 0000 0000 0000 000000
2014-08-23 12:53:52,0.12,7.00,0.00,25.37,29.87,32.18,9.49,48.58,1007.11,2023.11,1468.85,1958.03,2021.02,499.65,487.86,36.69,0000 0000 0000 0000 000000
2014-08-23 12:58:53,0.11,7.00,0.00,25.34,29.87,32.17,9.47,48.35,1006.89,2023.17,1468.08,1957.66,2020.78,499.40,487.64,36.73,0000 0000 0000 0000 000000